Location: Saint-Palais-sur-Mer
(45.6429°N, 1.0859°W)
Time: 16:31:52
(UTC+01:00)

S-56A Canister/Altair - Pass Details

Date: 08 February 2026
Orbit: 633 x 2484 km, 38.9° (Epoch: 16 March)

Event Time Altitude Azimuth Distance (km) Brightness Sun altitude
Exits shadow 05:31:05 46° 233° (SW) 2,383 9.5 -29.3°
Maximum altitude 05:34:51 64° 176° (S) 2,210 9.6 -28.7°
Drops below altitude 10° 05:48:54 10° 100° (E) 5,069 12.6 -26.3°
Sets 05:53:06 0° 98° (E) 6,144 13.4 -25.5°
